LOT4PL ENGM-EPGD

Flight info

Callsign LOT4PL
Flight time 1h 1m
Altitude 31000
Route OKSAT L996 GETPA/N0445F370 L727 NEGIL DCT PENOR DCT MOTAD N133 DOMAG T240 OGDAV
Aircraft B38M/M-SDE1FGHILORVWXY/HB1

Departure

Time 2026-04-30 21:03
Airport Oslo-Gardermoen International Airport (ENGM)

Arrival

Time 2026-04-30 22:04
Airport Gdańsk Lech Wałęsa Airport (EPGD)
Time Latitude Longitude Altitude Speed Heading
2026-04-30 20:37 60.19557 11.09504 679 ft 0 kts 196°
2026-04-30 20:43 60.19578 11.09354 678 ft 0 kts 196°
2026-04-30 20:54 60.19590 11.09361 682 ft 4 kts 197°
2026-04-30 20:55 60.19640 11.09400 681 ft 4 kts 207°
2026-04-30 20:55 60.19662 11.09430 680 ft 4 kts 226°
2026-04-30 20:55 60.19672 11.09468 684 ft 3 kts 282°
2026-04-30 20:56 60.19672 11.09473 684 ft 0 kts 286°
2026-04-30 20:58 60.19672 11.09471 684 ft 1 kts 286°
2026-04-30 20:58 60.19676 11.09442 682 ft 3 kts 285°
2026-04-30 20:58 60.19706 11.09234 682 ft 38 kts 286°
2026-04-30 20:58 60.19776 11.08756 679 ft 20 kts 298°
2026-04-30 20:59 60.20177 11.08928 680 ft 25 kts 51°
2026-04-30 20:59 60.20144 11.09329 683 ft 36 kts 106°
2026-04-30 21:00 60.19998 11.10355 685 ft 39 kts 106°
2026-04-30 21:00 60.19848 11.11387 684 ft 27 kts 106°
2026-04-30 21:01 60.19714 11.11696 688 ft 0 kts 118°
2026-04-30 21:01 60.19686 11.11822 686 ft 29 kts 130°
2026-04-30 21:02 60.19525 11.11904 691 ft 0 kts 196°
2026-04-30 21:02 60.19496 11.11886 684 ft 25 kts 196°
2026-04-30 21:02 60.19067 11.11638 690 ft 101 kts 196°
2026-04-30 21:02 60.18189 11.11133 734 ft 153 kts 195°
2026-04-30 21:03 60.17143 11.10511 1341 ft 162 kts 198°
2026-04-30 21:03 60.16020 11.09859 2036 ft 172 kts 198°
2026-04-30 21:03 60.14839 11.09229 2740 ft 183 kts 198°
2026-04-30 21:03 60.13476 11.09192 3180 ft 217 kts 167°
2026-04-30 21:04 60.12095 11.10833 3697 ft 246 kts 136°
2026-04-30 21:04 60.10954 11.13584 4374 ft 267 kts 128°
2026-04-30 21:04 60.08617 11.19812 6187 ft 285 kts 129°
2026-04-30 21:05 60.07400 11.23018 7105 ft 292 kts 129°
2026-04-30 21:05 60.06009 11.25966 8080 ft 291 kts 147°
2026-04-30 21:05 60.04243 11.27763 9055 ft 290 kts 161°
2026-04-30 21:05 60.02362 11.29457 10019 ft 295 kts 159°
2026-04-30 21:06 60.00512 11.31201 10804 ft 304 kts 159°
2026-04-30 21:06 59.98545 11.33079 11255 ft 324 kts 158°
2026-04-30 21:06 59.96432 11.35127 11736 ft 341 kts 157°
2026-04-30 21:06 59.94294 11.37213 12379 ft 351 kts 157°
2026-04-30 21:07 59.92092 11.39354 13281 ft 354 kts 157°
2026-04-30 21:07 59.89863 11.41532 14108 ft 360 kts 155°
2026-04-30 21:07 59.87795 11.44412 14877 ft 366 kts 144°
2026-04-30 21:07 59.85774 11.47552 15615 ft 371 kts 145°
2026-04-30 21:08 59.83712 11.50704 16355 ft 376 kts 145°
2026-04-30 21:08 59.81624 11.53884 17095 ft 380 kts 145°
2026-04-30 21:08 59.79509 11.57096 17814 ft 385 kts 145°
2026-04-30 21:08 59.77367 11.60343 18527 ft 389 kts 145°
2026-04-30 21:09 59.75206 11.63613 19122 ft 394 kts 145°
2026-04-30 21:09 59.73017 11.66920 19731 ft 397 kts 145°
2026-04-30 21:09 59.70807 11.70251 20327 ft 401 kts 144°
2026-04-30 21:09 59.68573 11.73614 20931 ft 405 kts 144°
2026-04-30 21:10 59.66314 11.77010 21500 ft 409 kts 144°
2026-04-30 21:10 59.64038 11.80424 22073 ft 413 kts 144°
2026-04-30 21:10 59.61736 11.83869 22683 ft 416 kts 144°
2026-04-30 21:10 59.59408 11.87351 23187 ft 422 kts 144°
2026-04-30 21:11 59.57058 11.90858 23770 ft 425 kts 144°
2026-04-30 21:11 59.54694 11.94379 24235 ft 429 kts 144°
2026-04-30 21:11 59.52305 11.97931 24709 ft 431 kts 144°
2026-04-30 21:11 59.49931 12.01454 25167 ft 434 kts 143°
2026-04-30 21:12 59.47506 12.05047 25621 ft 437 kts 143°
2026-04-30 21:12 59.45064 12.08657 26072 ft 440 kts 143°
2026-04-30 21:12 59.42602 12.12291 26513 ft 443 kts 143°
2026-04-30 21:12 59.40126 12.15939 26949 ft 446 kts 143°
2026-04-30 21:13 59.37635 12.19601 27379 ft 449 kts 143°
2026-04-30 21:13 59.35130 12.23278 27801 ft 452 kts 143°
2026-04-30 21:13 59.32604 12.26978 28213 ft 455 kts 143°
2026-04-30 21:13 59.30066 12.30689 28604 ft 457 kts 143°
2026-04-30 21:14 59.27508 12.34422 29048 ft 459 kts 143°
2026-04-30 21:14 59.24942 12.38159 29446 ft 462 kts 143°
2026-04-30 21:14 59.22353 12.41922 29810 ft 465 kts 143°
2026-04-30 21:14 59.19751 12.45698 30215 ft 467 kts 143°
2026-04-30 21:15 59.17131 12.49491 30554 ft 470 kts 143°
2026-04-30 21:15 59.14507 12.53283 30874 ft 472 kts 143°
2026-04-30 21:15 59.11859 12.57103 31200 ft 475 kts 143°
2026-04-30 21:15 59.09193 12.60942 31360 ft 478 kts 143°
2026-04-30 21:16 59.03850 12.68610 31338 ft 477 kts 143°
2026-04-30 21:16 58.98544 12.76196 31344 ft 477 kts 143°
2026-04-30 21:17 58.93214 12.83785 31342 ft 475 kts 142°
2026-04-30 21:17 58.87884 12.91347 31339 ft 475 kts 142°
2026-04-30 21:18 58.82545 12.98891 31349 ft 475 kts 142°
2026-04-30 21:18 58.77206 13.06404 31353 ft 475 kts 142°
2026-04-30 21:19 58.71858 13.13902 31351 ft 475 kts 143°
2026-04-30 21:19 58.66507 13.21375 31361 ft 475 kts 143°
2026-04-30 21:20 58.61143 13.28838 31376 ft 478 kts 142°
2026-04-30 21:20 58.55712 13.36361 31365 ft 490 kts 142°
2026-04-30 21:21 58.50181 13.43994 31371 ft 490 kts 142°
2026-04-30 21:22 58.41879 13.55397 31377 ft 490 kts 142°
2026-04-30 21:23 58.30792 13.70519 31373 ft 490 kts 142°
2026-04-30 21:23 58.23416 13.80514 31377 ft 488 kts 142°
2026-04-30 21:24 58.19751 13.85462 31379 ft 488 kts 142°
2026-04-30 21:25 58.11442 13.96629 31370 ft 488 kts 142°
2026-04-30 21:26 58.03114 14.07758 31377 ft 488 kts 142°
2026-04-30 21:27 57.94817 14.18781 31390 ft 489 kts 142°
2026-04-30 21:27 57.89251 14.26141 31376 ft 489 kts 142°
2026-04-30 21:28 57.80888 14.37137 31375 ft 489 kts 143°
2026-04-30 21:29 57.72526 14.48078 31370 ft 489 kts 142°
2026-04-30 21:30 57.58608 14.66151 31370 ft 487 kts 142°
2026-04-30 21:31 57.44661 14.84087 31366 ft 487 kts 142°
2026-04-30 21:32 57.36280 14.94784 31368 ft 487 kts 143°
2026-04-30 21:32 57.30696 15.01878 31369 ft 487 kts 143°
2026-04-30 21:33 57.22355 15.12424 31373 ft 485 kts 142°
2026-04-30 21:34 57.16775 15.19447 31365 ft 486 kts 143°
2026-04-30 21:34 57.08399 15.29939 31367 ft 486 kts 143°
2026-04-30 21:35 57.02802 15.36919 31366 ft 486 kts 143°
2026-04-30 21:35 56.97202 15.43875 31365 ft 486 kts 143°
2026-04-30 21:36 56.91607 15.50801 31370 ft 487 kts 143°
2026-04-30 21:37 56.80403 15.64594 31368 ft 487 kts 143°
2026-04-30 21:37 56.74766 15.71494 31368 ft 487 kts 143°
2026-04-30 21:38 56.69140 15.78356 31368 ft 487 kts 143°
2026-04-30 21:38 56.63506 15.85203 31370 ft 487 kts 143°
2026-04-30 21:39 56.57848 15.92053 31370 ft 489 kts 143°
2026-04-30 21:39 56.52216 15.98847 31372 ft 489 kts 143°
2026-04-30 21:40 56.46519 16.05694 31369 ft 489 kts 143°
2026-04-30 21:40 56.40882 16.12445 31361 ft 489 kts 143°
2026-04-30 21:41 56.35178 16.19251 31370 ft 489 kts 143°
2026-04-30 21:41 56.29499 16.26004 31391 ft 489 kts 143°
2026-04-30 21:42 56.23832 16.32716 31374 ft 492 kts 143°
2026-04-30 21:42 56.18109 16.39469 31372 ft 491 kts 143°
2026-04-30 21:43 56.12389 16.46198 31362 ft 492 kts 143°
2026-04-30 21:43 56.06667 16.52903 31361 ft 492 kts 143°
2026-04-30 21:44 56.00935 16.59596 31369 ft 492 kts 143°
2026-04-30 21:44 55.95210 16.66257 31356 ft 492 kts 143°
2026-04-30 21:45 55.89510 16.72865 31054 ft 483 kts 143°
2026-04-30 21:45 55.86693 16.76122 30438 ft 484 kts 143°
2026-04-30 21:45 55.83861 16.79391 29704 ft 485 kts 143°
2026-04-30 21:46 55.81023 16.82661 29119 ft 487 kts 143°
2026-04-30 21:46 55.78205 16.85901 28582 ft 489 kts 143°
2026-04-30 21:46 55.75346 16.89184 27989 ft 490 kts 143°
2026-04-30 21:46 55.72441 16.92513 27401 ft 492 kts 143°
2026-04-30 21:47 55.69596 16.95768 26822 ft 493 kts 143°
2026-04-30 21:47 55.66715 16.99058 26226 ft 495 kts 143°
2026-04-30 21:47 55.63818 17.02362 25528 ft 494 kts 143°
2026-04-30 21:47 55.60921 17.05656 24663 ft 493 kts 143°
2026-04-30 21:48 55.58051 17.08915 24019 ft 487 kts 143°
2026-04-30 21:48 55.55223 17.12122 23432 ft 481 kts 143°
2026-04-30 21:48 55.52410 17.15306 22865 ft 478 kts 143°
2026-04-30 21:48 55.49615 17.18465 22333 ft 475 kts 143°
2026-04-30 21:49 55.46842 17.21592 21804 ft 471 kts 143°
2026-04-30 21:49 55.44094 17.24688 21282 ft 467 kts 143°
2026-04-30 21:49 55.41370 17.27750 20772 ft 464 kts 143°
2026-04-30 21:49 55.38656 17.30797 20261 ft 460 kts 143°
2026-04-30 21:50 55.35964 17.33814 19767 ft 457 kts 143°
2026-04-30 21:50 55.33290 17.36804 19272 ft 453 kts 142°
2026-04-30 21:50 55.30640 17.39765 18797 ft 450 kts 142°
2026-04-30 21:50 55.28005 17.42703 18258 ft 446 kts 142°
2026-04-30 21:51 55.25395 17.45609 17754 ft 443 kts 142°
2026-04-30 21:51 55.22840 17.48449 17283 ft 440 kts 143°
2026-04-30 21:51 55.20272 17.51422 16732 ft 434 kts 140°
2026-04-30 21:51 55.17845 17.54426 16300 ft 431 kts 140°
2026-04-30 21:52 55.15398 17.57424 15859 ft 428 kts 140°
2026-04-30 21:52 55.12958 17.60397 15413 ft 425 kts 140°
2026-04-30 21:52 55.10537 17.63337 14970 ft 422 kts 141°
2026-04-30 21:52 55.08134 17.66252 14504 ft 419 kts 141°
2026-04-30 21:53 55.05748 17.69141 14015 ft 416 kts 141°
2026-04-30 21:53 55.03385 17.71997 13528 ft 413 kts 141°
2026-04-30 21:53 55.01029 17.74842 13100 ft 410 kts 141°
2026-04-30 21:53 54.98687 17.77665 12646 ft 408 kts 141°
2026-04-30 21:54 54.96366 17.80458 12184 ft 404 kts 141°
2026-04-30 21:54 54.94053 17.83238 11740 ft 402 kts 141°
2026-04-30 21:54 54.91719 17.86040 11296 ft 400 kts 141°
2026-04-30 21:54 54.89469 17.88736 11026 ft 398 kts 141°
2026-04-30 21:55 54.87221 17.91427 10864 ft 397 kts 141°
2026-04-30 21:55 54.84947 17.94145 10683 ft 396 kts 141°
2026-04-30 21:55 54.82681 17.96851 10489 ft 395 kts 141°
2026-04-30 21:55 54.80342 17.99324 10118 ft 396 kts 154°
2026-04-30 21:56 54.77655 18.00328 9675 ft 396 kts 177°
2026-04-30 21:56 54.74938 18.00429 9391 ft 385 kts 175°
2026-04-30 21:56 54.72272 18.00655 8856 ft 383 kts 175°
2026-04-30 21:56 54.69610 18.00905 8301 ft 382 kts 175°
2026-04-30 21:57 54.66974 18.01163 7890 ft 377 kts 175°
2026-04-30 21:57 54.64380 18.01423 7531 ft 370 kts 175°
2026-04-30 21:57 54.61827 18.01680 7170 ft 364 kts 175°
2026-04-30 21:57 54.59318 18.01933 6799 ft 357 kts 175°
2026-04-30 21:58 54.56900 18.02176 6435 ft 340 kts 176°
2026-04-30 21:58 54.54599 18.02408 6094 ft 323 kts 176°
2026-04-30 21:58 54.52402 18.02629 5766 ft 310 kts 176°
2026-04-30 21:58 54.50294 18.02872 5439 ft 297 kts 171°
2026-04-30 21:59 54.48453 18.04146 5077 ft 280 kts 136°
2026-04-30 21:59 54.47406 18.06740 4840 ft 252 kts 107°
2026-04-30 21:59 54.46789 18.09469 4678 ft 240 kts 107°
2026-04-30 22:00 54.45546 18.14713 4166 ft 237 kts 108°
2026-04-30 22:00 54.44295 18.19914 3637 ft 234 kts 109°
2026-04-30 22:00 54.43673 18.22485 3394 ft 233 kts 109°
2026-04-30 22:01 54.43054 18.25034 3153 ft 227 kts 109°
2026-04-30 22:01 54.42458 18.27479 2907 ft 214 kts 109°
2026-04-30 22:01 54.41916 18.29700 2665 ft 192 kts 109°
2026-04-30 22:01 54.41424 18.31714 2446 ft 174 kts 109°
2026-04-30 22:02 54.40980 18.33520 2200 ft 158 kts 109°
2026-04-30 22:02 54.40559 18.35238 1952 ft 155 kts 109°
2026-04-30 22:02 54.40135 18.36953 1684 ft 156 kts 109°
2026-04-30 22:02 54.39710 18.38676 1363 ft 156 kts 110°
2026-04-30 22:03 54.39294 18.40387 1056 ft 154 kts 112°
2026-04-30 22:03 54.38872 18.42071 833 ft 154 kts 113°
2026-04-30 22:03 54.38469 18.43734 639 ft 149 kts 114°
2026-04-30 22:03 54.38078 18.45323 469 ft 145 kts 114°
2026-04-30 22:04 54.37735 18.46706 454 ft 76 kts 114°
2026-04-30 22:04 54.37597 18.47329 463 ft 47 kts 104°
2026-04-30 22:04 54.37696 18.47588 462 ft 19 kts 292°
2026-04-30 22:05 54.37751 18.47365 459 ft 22 kts 292°
2026-04-30 22:05 54.37816 18.47105 459 ft 25 kts 294°
2026-04-30 22:05 54.37890 18.46809 456 ft 29 kts 294°
2026-04-30 22:05 54.37964 18.46560 454 ft 1 kts 319°
2026-04-30 22:06 54.37967 18.46562 454 ft 1 kts 12°
2026-04-30 22:06 54.38080 18.46655 454 ft 3 kts 23°
2026-04-30 22:06 54.38100 18.46669 454 ft 0 kts 21°